Location: Poughquag
(41.6090°N, 73.6820°W)
Time: 00:56:46
(UTC-04:00)

Vanguard 1 Rocket - Pass Details

Date: 02 June 2020
Orbit: 653 x 4224 km, 34.3° (Epoch: 06 July)

Event Time Altitude Azimuth Distance (km) Brightness Sun altitude
Rises 23:10:33 0° 223° (SW) 8,460 12.1 -21.8°
Reaches altitude 10° 23:17:02 10° 218° (SW) 7,366 11.7 -22.3°
Maximum altitude 23:39:06 45° 156° (SSE) 3,989 10.1 -23.8°
Drops below altitude 10° 23:52:43 10° 89° (E) 4,742 10.9 -24.5°
Sets 23:55:48 0° 83° (E) 5,358 11.3 -24.7°
